Stations météo

réclame
Mon MeteoGroup
Moron de la Frontera, Espagne (8397): Température de l'air & dewpoint: 11.10.2017 03:00:00 - 17.10.2017 03:00:00 (CEST)Moron de la Frontera, Espagne (8397): Vitesse du vent: 11.10.2017 03:00:00 - 17.10.2017 03:00:00 (CEST)Moron de la Frontera, Espagne (8397): Direction du vent: 11.10.2017 03:00:00 - 17.10.2017 03:00:00 (CEST)Moron de la Frontera, Espagne (8397): reduced air pressure: 11.10.2017 03:00:00 - 17.10.2017 03:00:00 (CEST)Moron de la Frontera, Espagne (8397): visibility: 11.10.2017 03:00:00 - 17.10.2017 03:00:00 (CEST)
Date & Time tt [°C] td [°C] ff [km/h] ff [knt] dd ppp [hPa] vv [km]
17.10.2017 03:00:00 - - - - - - -
17.10.2017 02:00:00 22,0 8,5 5 3 N 1021,3 20
17.10.2017 01:00:00 - - - - - - -
17.10.2017 00:00:00 - - - - - - -
16.10.2017 23:00:00 22,2 10,0 9 5 N 1021,7 20
16.10.2017 22:00:00 - - - - - - -
16.10.2017 21:00:00 - - - - - - -
16.10.2017 20:00:00 25,8 11,2 15 8 N 1020,7 25
16.10.2017 19:00:00 - - - - - - -
16.10.2017 18:00:00 - - - - - - -
16.10.2017 17:00:00 30,2 10,2 9 5 NNE 1020,1 30
16.10.2017 16:00:00 - - - - - - -
16.10.2017 15:00:00 - - - - - - -
16.10.2017 14:00:00 28,8 8,5 5 3 ESE 1021,7 30
16.10.2017 13:00:00 - - - - - - -
16.10.2017 12:00:00 - - - - - - -
16.10.2017 11:00:00 23,6 7,7 0 0 N 1022,6 25
16.10.2017 10:00:00 - - - - - - -
16.10.2017 09:00:00 - - - - - - -
16.10.2017 08:00:00 16,0 2,4 0 0 N 1020,4 20
16.10.2017 07:00:00 - - - - - - -
16.10.2017 06:00:00 - - - - - - -
16.10.2017 05:00:00 16,4 1,7 0 0 N 1020,2 25
16.10.2017 04:00:00 - - - - - - -
16.10.2017 03:00:00 - - - - - - -
16.10.2017 02:00:00 20,8 3,5 4 2 E 1020,5 25
16.10.2017 01:00:00 - - - - - - -
16.10.2017 00:00:00 - - - - - - -
15.10.2017 23:00:00 27,0 4,7 15 8 WNW 1019,5 25
15.10.2017 22:00:00 - - - - - - -
15.10.2017 21:00:00 - - - - - - -
15.10.2017 20:00:00 29,3 6,0 16 9 WNW 1018,7 25
15.10.2017 19:00:00 - - - - - - -
15.10.2017 18:00:00 - - - - - - -
15.10.2017 17:00:00 34,1 7,2 24 13 WNW 1018,7 25
15.10.2017 16:00:00 - - - - - - -
15.10.2017 15:00:00 - - - - - - -
15.10.2017 14:00:00 33,7 7,6 9 5 NNW 1020,2 20
15.10.2017 13:00:00 - - - - - - -
15.10.2017 12:00:00 - - - - - - -
15.10.2017 11:00:00 24,7 7,4 5 3 SSE 1022,3 15
15.10.2017 10:00:00 - - - - - - -
15.10.2017 09:00:00 - - - - - - -
15.10.2017 08:00:00 17,5 3,4 2 1 SSW 1021,9 15
15.10.2017 07:00:00 - - - - - - -
15.10.2017 06:00:00 - - - - - - -
15.10.2017 05:00:00 20,3 4,4 0 0 N 1021,5 15
15.10.2017 04:00:00 - - - - - - -
15.10.2017 03:00:00 - - - - - - -
15.10.2017 02:00:00 22,3 4,4 8 4 WNW 1022,1 15
15.10.2017 01:00:00 - - - - - - -
15.10.2017 00:00:00 - - - - - - -
14.10.2017 23:00:00 29,2 8,3 8 4 WSW 1022,1 15
14.10.2017 22:00:00 - - - - - - -
14.10.2017 21:00:00 - - - - - - -
14.10.2017 20:00:00 31,1 8,2 5 3 NW 1021,3 15
14.10.2017 19:00:00 - - - - - - -
14.10.2017 18:00:00 - - - - - - -
14.10.2017 17:00:00 32,7 8,9 8 4 NE 1020,9 15
14.10.2017 16:00:00 - - - - - - -
14.10.2017 15:00:00 - - - - - - -
14.10.2017 14:00:00 31,3 9,5 4 2 SSW 1022,2 15
14.10.2017 13:00:00 - - - - - - -
14.10.2017 12:00:00 - - - - - - -
14.10.2017 11:00:00 21,5 6,2 4 2 S 1023,6 15
14.10.2017 10:00:00 - - - - - - -
14.10.2017 09:00:00 - - - - - - -
14.10.2017 08:00:00 19,1 5,2 0 0 N 1022,0 20
14.10.2017 07:00:00 - - - - - - -
14.10.2017 06:00:00 - - - - - - -
14.10.2017 05:00:00 20,2 6,2 4 2 W 1022,1 20
14.10.2017 04:00:00 - - - - - - -
14.10.2017 03:00:00 - - - - - - -
14.10.2017 02:00:00 21,2 5,9 5 3 WNW 1023,3 20
14.10.2017 01:00:00 - - - - - - -
14.10.2017 00:00:00 - - - - - - -
13.10.2017 23:00:00 24,7 7,4 4 2 N 1023,1 9
13.10.2017 22:00:00 - - - - - - -
13.10.2017 21:00:00 - - - - - - -
13.10.2017 20:00:00 30,4 8,2 4 2 E 1021,6 8
13.10.2017 19:00:00 - - - - - - -
13.10.2017 18:00:00 - - - - - - -
13.10.2017 17:00:00 33,6 9,6 5 3 NE 1021,2 20
13.10.2017 16:00:00 - - - - - - -
13.10.2017 15:00:00 - - - - - - -
13.10.2017 14:00:00 30,7 11,1 5 3 SSE 1023,0 20
13.10.2017 13:00:00 - - - - - - -
13.10.2017 12:00:00 - - - - - - -
13.10.2017 11:00:00 24,9 10,7 0 0 N 1024,3 9
13.10.2017 10:00:00 - - - - - - -
13.10.2017 09:00:00 - - - - - - -
13.10.2017 08:00:00 17,1 6,3 4 2 WSW 1023,0 20
13.10.2017 07:00:00 - - - - - - -
13.10.2017 06:00:00 - - - - - - -
13.10.2017 05:00:00 17,7 5,3 5 3 NW 1023,0 15
13.10.2017 04:00:00 - - - - - - -
13.10.2017 03:00:00 - - - - - - -
13.10.2017 02:00:00 18,8 3,8 4 2 NW 1023,2 15
13.10.2017 01:00:00 - - - - - - -
13.10.2017 00:00:00 - - - - - - -
12.10.2017 23:00:00 23,1 4,6 0 0 N 1022,6 20
12.10.2017 22:00:00 - - - - - - -
12.10.2017 21:00:00 - - - - - - -
12.10.2017 20:00:00 31,5 7,9 9 5 NNE 1021,4 25
12.10.2017 19:00:00 - - - - - - -
12.10.2017 18:00:00 - - - - - - -
12.10.2017 17:00:00 35,3 11,0 0 0 N 1021,0 25
12.10.2017 16:00:00 - - - - - - -
12.10.2017 15:00:00 - - - - - - -
12.10.2017 14:00:00 30,8 10,2 8 4 SSW 1022,9 20
12.10.2017 13:00:00 - - - - - - -
12.10.2017 12:00:00 - - - - - - -
12.10.2017 11:00:00 23,3 9,0 4 2 WNW 1023,7 20
12.10.2017 10:00:00 - - - - - - -
12.10.2017 09:00:00 - - - - - - -
12.10.2017 08:00:00 18,1 5,0 0 0 N 1022,2 20
12.10.2017 07:00:00 - - - - - - -
12.10.2017 06:00:00 - - - - - - -
12.10.2017 05:00:00 18,3 5,2 4 2 N 1020,9 20
12.10.2017 04:00:00 - - - - - - -
12.10.2017 03:00:00 - - - - - - -
12.10.2017 02:00:00 22,5 7,5 0 0 N 1020,5 20
12.10.2017 01:00:00 - - - - - - -
12.10.2017 00:00:00 - - - - - - -
11.10.2017 23:00:00 24,6 10,5 8 4 WSW 1020,9 20
11.10.2017 22:00:00 - - - - - - -
11.10.2017 21:00:00 - - - - - - -
11.10.2017 20:00:00 30,4 7,6 9 5 WSW 1019,6 20
11.10.2017 19:00:00 - - - - - - -
11.10.2017 18:00:00 - - - - - - -
11.10.2017 17:00:00 33,5 6,7 0 0 N 1018,7 25
11.10.2017 16:00:00 - - - - - - -
11.10.2017 15:00:00 - - - - - - -
11.10.2017 14:00:00 29,2 9,3 4 2 NNW 1019,9 25
11.10.2017 13:00:00 - - - - - - -
11.10.2017 12:00:00 - - - - - - -
11.10.2017 11:00:00 21,7 9,6 4 2 E 1020,9 20
11.10.2017 10:00:00 - - - - - - -
11.10.2017 09:00:00 - - - - - - -
11.10.2017 08:00:00 15,3 6,1 0 0 N 1019,6 20
11.10.2017 07:00:00 - - - - - - -
11.10.2017 06:00:00 - - - - - - -
11.10.2017 05:00:00 17,1 7,5 4 2 ESE 1019,7 20
11.10.2017 04:00:00 - - - - - - -
11.10.2017 03:00:00 - - - - - - -

tt = Température de l'air
td = dewpoint
ff = Vitesse du vent
dd = Direction du vent
ppp = reduced air pressure
vv = visibility

stations d'obs. à proximité